Location: Saint-Palais-sur-Mer
(45.6429°N, 1.0859°W)
Time: 00:47:41
(UTC+01:00)

Tiros 1 despin weight - Pass Details

Date: 11 February 2026
Orbit: 556 x 593 km, 48.2° (Epoch: 13 March)

Event Time Altitude Azimuth Distance (km) Brightness Sun altitude
Rises 19:28:29 0° 245° (WSW) 2,725 ? -11.6°
Reaches altitude 10° 19:30:44 10° 245° (WSW) 1,832 ? -11.9°
Maximum altitude 19:34:54 80° 159° (SSE) 569 ? -12.7°
Enters shadow 19:37:41 21° 74° (ENE) 1,289 ? -13.1°
Drops below altitude 10° 19:39:07 10° 72° (ENE) 1,845 - -13.4°
Sets 19:41:23 0° 72° (ENE) 2,746 - -13.8°
